Location: Plourde
(48.6886°N, 67.9500°W)
Time: 12:02:23
(UTC+00:00)

ISS - Visible Passes

Search period start: 05 December 2021 00:00
Search period end: 15 December 2021 00:00
Orbit: 417 x 422 km, 51.6° (Epoch: 05 December)

Date Brightness Start Highest point End Pass type
(mag) Time Alt. Az. Time Alt. Az. Time Alt. Az.
05 Dec -2.5 22:26:50 10° WNW 22:30:02 39° SSW 22:32:06 19° SSE visible
06 Dec -3.1 21:39:23 10° WNW 21:42:44 58° SSW 21:46:04 10° SE visible
06 Dec -0.7 23:17:37 10° WSW 23:18:57 12° SW 23:20:18 10° SSW visible
07 Dec -0.9 22:29:23 10° W 22:31:47 18° SW 22:34:10 10° S visible
08 Dec -1.4 21:41:37 10° W 21:44:32 27° SW 21:47:26 10° SSE visible
10 Dec -0.3 21:44:49 10° WSW 21:46:08 12° SW 21:47:26 10° SSW visible
